FW9465 Weather Reports


Display with metric or nautical units.
time (UTC)temp
F
wind
direction
speed
MPH
gust
MPH
rain 1hr
in
rain 24hr
in
rain mn
in
humidity
%
barometer
mb
20260902101839 77 157 0.0 0.0 0.00 0.00 0.00 75 1015.1
20260902100838 77 157 0.0 0.0 0.00 0.00 0.00 75 1015.2
20260902095837 77 157 0.0 1.0 0.00 0.00 0.00 75 1015.2
20260902093937 78 157 0.0 0.0 0.00 0.00 0.00 73 1015.1
20260902093034 78 157 0.0 0.0 0.00 0.00 0.00 72 1015.0
20260902092036 79 157 0.0 0.0 0.00 0.00 0.00 72 1015.2
20260902091135 79 157 0.0 1.0 0.00 0.00 0.00 71 1015.3
20260902090152 79 157 0.0 1.0 0.00 0.00 0.00 71 1015.3
20260902085136 79 157 1.0 2.0 0.00 0.00 0.00 71 1015.3
20260902084136 79 157 1.0 3.0 0.00 0.00 0.00 70 1015.3
20260902082136 80 157 2.0 3.0 0.00 0.00 0.00 70 1015.3
20260902081136 80 157 2.0 4.0 0.00 0.00 0.00 69 1015.3
20260902080136 80 157 2.0 3.0 0.00 0.00 0.00 67 1015.3
20260902074235 81 157 2.0 2.0 0.00 0.00 0.00 67 1015.5
20260902073237 81 157 2.0 4.0 0.00 0.00 0.00 65 1015.4
20260902072237 82 157 4.0 5.0 0.00 0.00 0.00 65 1015.5
20260902071237 82 157 2.0 4.0 0.00 0.00 0.00 65 1015.5
20260902070236 83 151 4.0 6.0 0.00 0.00 0.00 64 1015.5
20260902065238 83 158 6.0 9.0 0.00 0.00 0.00 63 1015.5
20260902063237 83 160 7.0 10.0 0.00 0.00 0.00 62 1015.4
20260902062237 84 160 5.0 7.0 0.00 0.00 0.00 62 1015.4
20260902060238 84 160 8.0 11.0 0.00 0.00 0.00 61 1015.2
20260902055336 84 156 7.0 10.0 0.00 0.00 0.00 60 1015.1
20260902053436 85 154 7.0 8.0 0.00 0.00 0.00 59 1014.8
20260902052437 85 152 8.0 11.0 0.00 0.00 0.00 58 1014.8
20260902050534 86 145 7.0 12.0 0.00 0.00 0.00 57 1014.6
20260902045539 86 147 4.0 7.0 0.00 0.00 0.00 56 1014.8
20260902044623 86 131 4.0 7.0 0.00 0.00 0.00 56 1014.7
20260902042623 87 135 4.0 5.0 0.00 0.00 0.00 55 1014.6
20260902040621 87 157 3.0 5.0 0.00 0.00 0.00 53 1014.4
20260902040522 87 157 4.0 5.0 0.00 0.00 0.00 53 1014.5
20260902035523 88 158 4.0 6.0 0.00 0.00 0.00 53 1014.4
20260902034523 88 157 4.0 5.0 0.00 0.00 0.00 51 1014.5
20260902032624 89 153 6.0 8.0 0.00 0.00 0.00 49 1014.4
20260902030722 89 157 4.0 6.0 0.00 0.00 0.00 49 1014.1
20260902025724 89 146 4.0 5.0 0.00 0.00 0.00 47 1014.0
20260902024723 90 149 4.0 6.0 0.00 0.00 0.00 48 1013.8
20260902022722 90 134 3.0 5.0 0.00 0.00 0.00 47 1013.7
20260902021723 90 133 2.0 5.0 0.00 0.00 0.00 47 1013.5
20260902020822 91 138 3.0 5.0 0.00 0.00 0.00 45 1013.3
20260902015921 91 143 4.0 5.0 0.00 0.00 0.00 46 1013.3
20260902014921 91 147 3.0 5.0 0.00 0.00 0.00 45 1013.1
20260902013922 92 136 3.0 5.0 0.00 0.00 0.00 44 1013.0
20260902012923 92 130 4.0 7.0 0.00 0.00 0.00 44 1013.0
20260902010939 93 128 3.0 6.0 0.00 0.00 0.00 43 1012.9
20260902010022 94 128 3.0 7.0 0.00 0.00 0.00 42 1012.7
20260902005121 95 134 3.0 7.0 0.00 0.00 0.00 41 1012.8
20260902004124 96 130 4.0 8.0 0.00 0.00 0.00 40 1012.9
20260902003122 96 132 3.0 6.0 0.00 0.00 0.00 39 1012.7
20260902002121 97 156 7.0 9.0 0.00 0.00 0.00 39 1012.9
20260902001123 97 144 3.0 5.0 0.00 0.00 0.00 37 1012.8
20260902000124 97 87 1.0 3.0 0.00 0.00 0.00 38 1012.8
20260901235122 97 144 7.0 11.0 0.00 0.00 0.00 38 1013.0
20260901233140 98 127 4.0 7.0 0.00 0.00 0.00 37 1013.2
20260901232224 98 141 6.0 7.0 0.00 0.00 0.00 37 1013.1
20260901231321 97 155 7.0 8.0 0.00 0.00 0.00 37 1013.2
20260901225322 97 116 5.0 8.0 0.00 0.00 0.00 37 1013.1
20260901224421 97 87 8.0 10.0 0.00 0.00 0.00 38 1013.1
20260901222520 97 120 3.0 7.0 0.00 0.00 0.00 37 1013.2
20260901221523 97 93 7.0 9.0 0.00 0.00 0.00 36 1013.1
20260901220521 98 90 10.0 13.0 0.00 0.00 0.00 36 1013.1
20260901214523 97 131 2.0 3.0 0.00 0.00 0.00 36 1013.3
20260901213622 98 75 6.0 10.0 0.00 0.00 0.00 35 1013.4
20260901212623 98 68 6.0 9.0 0.00 0.00 0.00 36 1013.5
20260901211636 98 83 7.0 13.0 0.00 0.00 0.00 37 1013.5
20260901210720 97 128 5.0 9.0 0.00 0.00 0.00 38 1013.6
20260901205722 97 55 7.0 13.0 0.00 0.00 0.00 38 1013.6
20260901203722 98 89 8.0 14.0 0.00 0.00 0.00 37 1013.8
20260901202721 99 59 3.0 5.0 0.00 0.00 0.00 36 1014.0
20260901202627 99 89 2.0 4.0 0.00 0.00 0.00 36 1014.0
20260901200622 97 152 8.0 14.0 0.00 0.00 0.00 38 1014.1
20260901193622 95 105 4.0 6.0 0.00 0.00 0.00 39 1014.6
20260901192721 97 93 10.0 13.0 0.00 0.00 0.00 38 1014.7
20260901191721 96 199 3.0 6.0 0.00 0.00 0.00 39 1014.7
20260901190723 96 147 10.0 14.0 0.00 0.00 0.00 40 1014.7
20260901185721 97 105 10.0 13.0 0.00 0.00 0.00 38 1015.1
20260901184722 97 89 1.0 3.0 0.00 0.00 0.00 39 1015.2
20260901181836 97 134 4.0 7.0 0.00 0.00 0.00 39 1016.0
20260901180922 96 167 9.0 13.0 0.00 0.00 0.00 40 1016.0
20260901180020 95 183 5.0 11.0 0.00 0.00 0.00 41 1016.0
20260901175036 95 67 5.0 8.0 0.00 0.00 0.00 42 1016.0
20260901174121 96 171 3.0 7.0 0.00 0.00 0.00 42 1016.4
20260901173120 94 162 5.0 7.0 0.00 0.00 0.00 42 1016.6
20260901173022 94 169 8.0 12.0 0.00 0.00 0.00 43 1016.6
20260901172121 94 101 4.0 6.0 0.00 0.00 0.00 43 1016.7
20260901170220 95 80 3.0 6.0 0.00 0.00 0.00 43 1016.9
20260901165222 94 105 7.0 10.0 0.00 0.00 0.00 43 1017.0
20260901164219 94 83 3.0 5.0 0.00 0.00 0.00 43 1017.0
20260901163237 94 112 3.0 4.0 0.00 0.00 0.00 44 1017.0
20260901162322 95 97 4.0 7.0 0.00 0.00 0.00 43 1017.1
20260901160420 94 157 1.0 2.0 0.00 0.00 0.00 44 1017.0
20260901155422 94 184 3.0 4.0 0.00 0.00 0.00 45 1017.0
20260901154437 93 157 2.0 5.0 0.00 0.00 0.00 46 1017.1
20260901153522 92 169 4.0 7.0 0.00 0.00 0.00 47 1017.0
20260901151539 91 164 7.0 9.0 0.00 0.00 0.00 49 1017.2
20260901150520 91 194 3.0 5.0 0.00 0.00 0.00 51 1017.2
20260901144521 89 182 3.0 8.0 0.00 0.00 0.00 52 1017.2
20260901143520 88 228 2.0 5.0 0.00 0.00 0.00 54 1017.1
20260901142522 88 157 5.0 7.0 0.00 0.00 0.00 55 1017.2
20260901140520 85 178 3.0 5.0 0.00 0.00 0.00 60 1017.4
20260901135522 84 137 3.0 5.0 0.00 0.00 0.00 61 1017.3
20260901134620 83 134 3.0 5.0 0.00 0.00 0.00 62 1017.3
20260901133624 81 100 3.0 4.0 0.00 0.00 0.00 65 1017.3
20260901132621 80 90 0.0 0.0 0.00 0.00 0.00 68 1017.2
20260901131720 78 90 0.0 1.0 0.00 0.00 0.00 71 1017.3
20260901130737 78 90 0.0 0.0 0.00 0.00 0.00 71 1016.9
20260901124722 77 157 2.0 2.0 0.00 0.00 0.00 72 1016.6
20260901122821 77 202 1.0 2.0 0.00 0.00 0.00 72 1016.5
20260901121920 76 247 1.0 3.0 0.00 0.00 0.00 72 1016.5
20260901120921 76 236 2.0 3.0 0.00 0.00 0.00 72 1016.2
20260901115921 76 112 0.0 0.0 0.00 0.00 0.00 72 1016.3
20260901114922 76 112 0.0 0.0 0.00 0.00 0.00 71 1016.3
20260901114019 77 112 0.0 0.0 0.00 0.00 0.00 71 1016.4
20260901113019 77 112 0.0 0.0 0.00 0.00 0.00 69 1016.4
20260901111020 78 202 0.0 2.0 0.00 0.00 0.00 69 1016.1
20260901110119 77 225 2.0 5.0 0.00 0.00 0.00 68 1016.0
20260901105121 77 217 1.0 3.0 0.00 0.00 0.00 69 1016.0
20260901104120 77 202 2.0 3.0 0.00 0.00 0.00 68 1016.1
20260901103218 78 187 2.0 4.0 0.00 0.00 0.00 68 1016.1